Location: C.E.K. Mees Observatory
(42.7003°N, 77.4088°W)
Time: 18:10:20
(UTC-04:00)

Tiangong 2 - Pass Details

Date: 12 October 2017
Orbit: 388 x 392 km, 42.8° (Epoch: 16 October)

Event Time Altitude Azimuth Distance (km) Brightness Sun altitude
Exits shadow 06:48:31 - 269° (W) 1,535 3.4 -6.5°
Reaches altitude 10° 06:48:48 10° 269° (W) 1,419 3.2 -6.5°
Maximum altitude 06:52:00 86° 359° (N) 395 1.1 -5.9°
Drops below altitude 10° 06:55:13 10° 88° (E) 1,422 5.8 -5.3°
Sets 06:57:18 0° 89° (E) 2,277 7.6 -4.9°
